Powrót do katalogu

STARLINK-11200

AktywnyŁącznośćVLEO
NORAD 60310·PAYLOAD·🇺🇸 United States

Wystrzelony Jul 28, 2024 z Vandenberg Space Force Base

Loading…

Następne Przeloty (najbliższe 24 godziny)

TLE

ŚwieżeSource: CelesTrak SupGP

Epoka: Sep 14, 2026, 20:38 UTC

1 60310C 24133K   26257.86020833 -.00039413  00000+0 -32465-3 0  2576
2 60310  53.1570 293.3825 0001103  87.1512 123.2602 15.69730000    12

Śledź STARLINK-11200 w czasie rzeczywistym z AllMySat

Download on the App Store